Change the Weather History Date:

Thursday, September 19, 2013

  Actual Average Record
Temperature  
Mean Temperature 80 °F 70 °F  
Max Temperature 93 °F 81 °F 101 °F (1954)
Min Temperature 67 °F 58 °F 38 °F (1991)
Degree Days  
Heating Degree Days 0 2  
Month to date heating degree days 0 10  
Since 1 July heating degree days 1 11  
Cooling Degree Days 15 6  
Month to date cooling degree days 270 171  
Year to date cooling degree days 1683 1598  
Growing Degree Days 30 (Base 50)    
Moisture  
Dew Point 66 °F    
Average Humidity 71    
Maximum Humidity 100    
Minimum Humidity 41    
Precipitation  
Precipitation 1.19 in 0.11 in 1.36 in (1890)
Month to date precipitation 1.58 2.02  
Year to date precipitation 35.75 26.11  
Snow  
Snow 0.00 in 0.00 in 0.00 in (2007)
Month to date snowfall 0.0 0.0  
Since 1 July snowfall 0.0 0.0  
Since 1 September snowfall 0.0 0.0  
Snow Depth 0.00 in    
Sea Level Pressure  
Sea Level Pressure 29.86 in    
Wind  
Wind Speed 15 mph (SSW)    
Max Wind Speed 43 mph    
Max Gust Speed 49 mph    
Visibility 8 miles    
Events Rain , Thunderstorm    
T = Trace of Precipitation, MM = Missing Value Source: NWS Daily Summary

Daily Weather History Graph

Daily Weather History Graph

Search for Another Location

Airport or City:

Trip Planner

Search our weather history database for the weather conditions in past years. The results will help you decide how hot, cold, wet, or windy it might be!

Date:

Astronomy

Sep. 19, 2013 Rise Set
Actual Time 7:15 AM CDT 7:30 PM CDT
Civil Twilight 6:49 AM CDT 7:57 PM CDT
Nautical Twilight 6:18 AM CDT 8:27 PM CDT
Astronomical Twilight 5:47 AM CDT 8:58 PM CDT
Moon 7:31 PM CDT (9/19) 7:24 AM CDT (9/19)
Length of Visible Light 13h 08m
Length of Day
12h 15m
Full, 100% of the Moon is Illuminated
Sep 19
Full
Sep 26
Last Quarter
Oct 4
New
Oct 11
First Quarter
Oct 18
Full

Hourly Weather History & Observations

Time (CDT) Temp. Heat Index Dew Point Humidity Pressure Visibility Wind Dir Wind Speed Gust Speed Precip Events Conditions
12:53 AM 77.0 °F - 64.9 °F 66% 29.81 in 10.0 mi South 12.7 mph - N/A   Partly Cloudy
1:53 AM 77.0 °F - 66.0 °F 69% 29.81 in 10.0 mi South 16.1 mph - N/A   Partly Cloudy
2:53 AM 75.9 °F - 66.0 °F 71% 29.81 in 10.0 mi South 13.8 mph - N/A   Scattered Clouds
3:53 AM 75.9 °F - 66.0 °F 71% 29.81 in 10.0 mi South 16.1 mph - N/A   Partly Cloudy
4:53 AM 75.0 °F - 66.0 °F 73% 29.81 in 10.0 mi South 13.8 mph - N/A   Scattered Clouds
5:53 AM 73.0 °F - 64.9 °F 76% 29.81 in 10.0 mi South 13.8 mph - N/A   Scattered Clouds
6:53 AM 72.0 °F - 64.9 °F 78% 29.82 in 10.0 mi South 11.5 mph - N/A   Mostly Cloudy
7:53 AM 73.0 °F - 64.9 °F 76% 29.83 in 9.0 mi South 13.8 mph - N/A   Mostly Cloudy
8:53 AM 75.0 °F - 64.9 °F 71% 29.84 in 10.0 mi South 16.1 mph - N/A   Mostly Cloudy
9:53 AM 80.1 °F 81.7 °F 64.0 °F 58% 29.84 in 10.0 mi SSW 18.4 mph 24.2 mph N/A   Mostly Cloudy
10:53 AM 84.0 °F 85.8 °F 64.9 °F 53% 29.84 in 10.0 mi SSW 17.3 mph 25.3 mph N/A   Mostly Cloudy
11:53 AM 89.1 °F 91.0 °F 64.9 °F 45% 29.83 in 10.0 mi SSW 16.1 mph 32.2 mph N/A   Mostly Cloudy
12:53 PM 91.0 °F 93.0 °F 64.9 °F 42% 29.81 in 10.0 mi SSW 23.0 mph 32.2 mph N/A   Mostly Cloudy
1:53 PM 91.0 °F 93.8 °F 66.0 °F 44% 29.80 in 10.0 mi SSW 20.7 mph 27.6 mph N/A   Mostly Cloudy
2:53 PM 91.9 °F 94.1 °F 64.9 °F 41% 29.77 in 10.0 mi SSW 23.0 mph 28.8 mph N/A   Mostly Cloudy
3:53 PM 91.9 °F 93.3 °F 64.0 °F 39% 29.75 in 10.0 mi SSW 25.3 mph 31.1 mph N/A   Mostly Cloudy
4:25 PM 87.8 °F 89.4 °F 64.4 °F 46% 29.80 in 10.0 mi SSW 17.3 mph 24.2 mph N/A   Mostly Cloudy
4:41 PM 87.8 °F 88.5 °F 62.6 °F 43% 29.80 in 10.0 mi SSW 18.4 mph 23.0 mph N/A Thunderstorm Thunderstorm
4:53 PM 80.1 °F 81.5 °F 63.0 °F 56% 29.78 in 10.0 mi West 25.3 mph 35.7 mph 0.00 in Rain , Thunderstorm Light Thunderstorms and Rain
5:00 PM 71.6 °F - 66.2 °F 83% 29.86 in 2.5 mi West 32.2 mph 49.5 mph 0.00 in Rain , Thunderstorm Thunderstorms and Rain
5:04 PM 69.8 °F - 66.2 °F 88% 29.85 in 0.8 mi WNW 31.1 mph 49.5 mph 0.04 in Rain , Thunderstorm Heavy Thunderstorms and Rain
5:18 PM 69.8 °F - 66.2 °F 88% 29.85 in 2.0 mi WNW 16.1 mph - 0.42 in Rain , Thunderstorm Thunderstorms and Rain
5:24 PM 71.6 °F - 68.0 °F 88% 29.84 in 1.8 mi West 18.4 mph - 0.54 in Rain , Thunderstorm Thunderstorms and Rain
5:32 PM 71.6 °F - 69.8 °F 94% 29.84 in 2.5 mi West 9.2 mph - 0.66 in Rain , Thunderstorm Thunderstorms and Rain
5:39 PM 71.6 °F - 69.8 °F 94% 29.86 in 5.0 mi SSW 10.4 mph - 0.69 in Rain , Thunderstorm Light Thunderstorms and Rain
5:53 PM 70.0 °F - 69.1 °F 97% 29.84 in 4.0 mi SSE 13.8 mph - 0.74 in Rain , Thunderstorm Light Thunderstorms and Rain
6:00 PM 69.8 °F - 69.8 °F 100% 29.90 in 4.0 mi South 12.7 mph - 0.05 in Rain , Thunderstorm Light Thunderstorms and Rain
6:39 PM 69.8 °F - 69.8 °F 100% 29.88 in 8.0 mi SW 15.0 mph - 0.27 in Rain , Thunderstorm Light Thunderstorms and Rain
6:53 PM 69.1 °F - 69.1 °F 100% 29.84 in 10.0 mi SW 15.0 mph - 0.28 in Rain Light Rain
7:32 PM 68.0 °F - 68.0 °F 100% 29.88 in 8.0 mi SSW 8.1 mph - 0.07 in Rain Rain
7:53 PM 66.9 °F - 66.9 °F 100% 29.88 in 10.0 mi SW 5.8 mph - 0.10 in Rain Light Rain
8:53 PM 66.9 °F - 66.9 °F 100% 29.95 in 8.0 mi SSE 6.9 mph - 0.06 in Rain Light Rain
8:59 PM 66.2 °F - 66.2 °F 100% 29.99 in 8.0 mi South 4.6 mph - 0.01 in Rain Rain
9:14 PM 66.2 °F - 66.2 °F 100% 29.99 in 10.0 mi South 9.2 mph - 0.01 in Rain Light Rain
9:53 PM 66.9 °F - 66.9 °F 100% 29.96 in 10.0 mi South 5.8 mph - 0.01 in   Overcast
10:02 PM 66.2 °F - 66.2 °F 100% 29.99 in 10.0 mi South 4.6 mph - 0.00 in Rain Light Rain
10:53 PM 66.9 °F - 66.9 °F 100% 29.96 in 10.0 mi Calm Calm - 0.00 in   Overcast
11:30 PM 66.2 °F - 66.2 °F 100% 30.00 in 10.0 mi WNW 6.9 mph - N/A   Overcast
11:46 PM 68.0 °F - 68.0 °F 100% 29.99 in 10.0 mi WNW 6.9 mph - N/A   Overcast
11:53 PM 68.0 °F - 68.0 °F 100% 29.96 in 10.0 mi NW 9.2 mph - N/A   Overcast